Moline, IL
on Monday, December 9, 2013

Monday
Previous Day Next Day
Daily Summary
 ActualAverageRecord
Temperature
Mean Temperature °F 28°F  
Max Temperature 22°F 36°F 64°F (1918)
Min Temperature -4°F 20°F -17°F (1876)
Degree Days
Heating Degree Days 56 37  
Month to date heating degree days 357 315  
Since 1 July heating degree days 1703 1546  
Cooling Degree Days 0 0  
Month to date cooling degree days 0 0  
Year to date cooling degree days 998 1004  
Moisture
Dew Point 6°F   
Average Humidity 74    
Maximum Humidity 87    
Minimum Humidity 60    
Precipitation
Precipitation 0.01 in 0.08 in 1.08 in (2003)
Month to date precipitation 0.18 0.74  
Year to date precipitation 38.20 36.52  
Snow
Snow 0.00 in 0.30 in in ()
Month to date snowfall 2.3 2.2  
Since 1 July snowfall 3.3 3.4  
Snow Depth 2.00 in   
Wind
Wind Speed 12 mph   
Max Wind Speed 24 mph   
Max Gust Speed 29 mph   
Visibility 7 miles   
Events Snow   

Key: T is trace of precipitation, MM is missing value
Source: NWS Daily Summary
Time(CST)TemperatureDew PointHumidity Pressure Visibility Wind DirectionWind SpeedGust SpeedPrecipitationEvents Conditions
12:42 AM 21.2°F 17.6°F 86% 29.99 in 3.0 miles West 15.0 mph - 0.00 in Snow Light Snow
12:52 AM 21.0°F 17.1°F 85% 30.02 in 2.5 miles West 12.7 mph - 0.00 in Snow Light Snow
1:06 AM 21.2°F 17.6°F 86% 29.99 in 1.2 miles West 13.8 mph - 0.01 in Snow Light Snow
1:17 AM 21.2°F 17.6°F 86% 29.99 in 2.0 miles West 11.5 mph - 0.01 in Snow Light Snow
1:30 AM 21.2°F 15.8°F 80% 30.01 in 3.0 miles West 15.0 mph - 0.01 in Snow Light Snow
1:48 AM 19.4°F 15.8°F 86% 30.00 in 2.5 miles West 12.7 mph - 0.01 in Snow Light Snow
1:49 AM 19.9°F 16.0°F 85% 30.03 in 2.5 miles West 13.8 mph - 0.01 in Snow Light Snow
1:59 AM 19.4°F 15.8°F 86% 30.00 in 4.0 miles West 18.4 mph 23.0 mph 0.00 in Snow Light Snow
2:41 AM 19.4°F 14.0°F 80% 30.03 in 5.0 miles West 17.3 mph - 0.00 in   Haze
2:52 AM 19.0°F 14.0°F 81% 30.06 in 6.0 miles West 18.4 mph - 0.00 in   Haze
3:40 AM 17.6°F 12.2°F 79% 30.05 in 6.0 miles West 16.1 mph - N/A   Haze
3:52 AM 18.0°F 12.9°F 81% 30.09 in 7.0 miles West 15.0 mph - N/A   Mostly Cloudy
4:14 AM 17.6°F 12.2°F 79% 30.06 in 6.0 miles West 16.1 mph - N/A   Haze
4:52 AM 17.1°F 12.0°F 81% 30.09 in 6.0 miles West 12.7 mph - N/A   Haze
5:33 AM 14.0°F 10.4°F 86% 30.08 in 7.0 miles West 11.5 mph - N/A   Scattered Clouds
5:52 AM 14.0°F 9.0°F 80% 30.11 in 7.0 miles West 10.4 mph - N/A   Clear
6:52 AM 12.9°F 8.1°F 81% 30.16 in 8.0 miles West 10.4 mph - N/A   Clear
7:52 AM 12.0°F 6.1°F 77% 30.18 in 9.0 miles West 10.4 mph - N/A   Clear
8:52 AM 12.0°F 6.1°F 77% 30.19 in 9.0 miles West 15.0 mph - N/A   Clear
9:52 AM 12.0°F 5.0°F 73% 30.22 in 10.0 miles West 12.7 mph 23.0 mph N/A   Clear
10:52 AM 14.0°F 5.0°F 67% 30.24 in 10.0 miles West 18.4 mph - N/A   Clear
11:52 AM 15.1°F 5.0°F 64% 30.24 in 10.0 miles West 16.1 mph 21.9 mph N/A   Clear
12:52 PM 12.9°F 3.0°F 65% 30.26 in 10.0 miles West 17.3 mph - N/A   Clear
1:52 PM 10.9°F 1.0°F 64% 30.27 in 10.0 miles WSW 16.1 mph - N/A   Clear
2:52 PM 9.0°F -2.0°F 61% 30.29 in 10.0 miles West 12.7 mph - N/A   Clear
3:52 PM 7.0°F -5.1°F 58% 30.30 in 10.0 miles West 10.4 mph - N/A   Clear
4:52 PM 3.0°F -6.0°F 66% 30.30 in 10.0 miles West 5.8 mph - N/A   Clear
5:52 PM 1.9°F -7.1°F 66% 30.31 in 10.0 miles West 8.1 mph - N/A   Clear
6:52 PM 1.0°F -7.1°F 69% 30.31 in 10.0 miles West 4.6 mph - N/A   Clear
7:52 PM -2.0°F -9.0°F 72% 30.30 in 10.0 miles SSW 4.6 mph - N/A   Clear
8:52 PM -0.9°F -8.0°F 72% 30.29 in - SSW 3.5 mph - N/A   Clear
9:52 PM -4.0°F -7.6°F 85% 30.29 in 10.0 miles SW 5.8 mph - N/A   Clear
10:52 PM -0.9°F -8.0°F 72% 30.27 in - North - - N/A   Unknown
11:52 PM - - N/A% 30.22 in - North - - N/A   Unknown
Astronomy
Sunrise:07:16 AM (CST) Moon Rise:12:05 PM (CST)12/9
Sunset:04:32 PM (CST) Moon Set:No Moon Set/
Moon Phase
Dec. 09 Dec. 17 Dec. 25 Jan. 01 Jan. 08

Copyright © 2015 The Weather Underground, Inc.















  Today is Monday, Nov. 17, the 321st day of 2014. There are 44 days left in the year.

1864 -- 150 years ago: The ferry landing has been moved a little downstream because of the increase of sandbars above and opposite the old landing place.
1889 -- 125 years ago: Ben Eden purchased the Union Meat Market at 207 20th St.
1914 -- 100 years ago: Washington dispatches declared the bad effects of war upon trade had ended, a restoration of credit balance with Europe relieving the situation.
1939 -- 75 years ago: The maintenance foreman on the Iowa Illinois Memorial Bridge between Moline and Bettendorf lost his life when he slipped and fell into the Mississippi River.
1964 -- 50 years ago: The Black Hawk College Board of Education last night formally expressed appreciation for a proposed gift of 44 acres of land for a building site but could not take any other action until after a Nov. 24 stockholders meeting of the donor company.
1989 -- 25 years ago: A Rock Island County committee has approved a jail inmate phone service that could bring the county an additional $30,000 to $40,000 a year.